Regional Weather Roundup
Issued by NWS

Home | Current Version | Previous Version | Graphics & Text | Print | Product List | Glossary On
Versions: 1 2 3 4 5 6 7 8 9 10 11 12 13 14 15 16 17 18 19 20 21 22 23 24 25 26 27 28 29 30 31 32 33 34 35 36 37 38 39 40 41 42 43 44 45 46 47 48 49 50
000
ASUS43 KOAX 252002
RWRNE

WEATHER ROUNDUP FOR NEBRASKA
NATIONAL WEATHER SERVICE OMAHA NE
300 PM CDT SAT APR 25 2015

NOTES: SATELLITE DATA IS BEING USED TO AUGMENT CLOUD COVER ABOVE
       12000 FEET.
       "FAIR" INDICATES FEW OR NO CLOUDS BELOW 12,000 FEET WITH NO
       SIGNIFICANT WEATHER AND/OR OBSTRUCTIONS TO VISIBILITY.

  * THESE STATIONS DO NOT REPORT WEATHER SUCH AS RAIN...SNOW OR FOG.

NEZ001>004-019>022-054>056-252100-
NEBRASKA PANHANDLE

CITY           SKY/WX    TMP DP  RH WIND       PRES   REMARKS
SCOTTSBLUFF    PTSUNNY   71  37  28 NW9       29.68F
ALLIANCE       MOSUNNY   68  43  40 E6        29.68F
CHADRON        MOSUNNY   67  50  54 E10G18    29.66F
SIDNEY         MOSUNNY   68  42  38 NE12G21   29.71S
$$

NEZ057>060-069>072-079>082-252100-
SOUTHWEST NEBRASKA

CITY           SKY/WX    TMP DP  RH WIND       PRES   REMARKS
IMPERIAL       MOSUNNY   69  42  37 NE12      29.68F
MCCOOK         MOSUNNY   71  49  45 N6        29.68R
$$

NEZ005>010-023>029-035>040-094-252100-
NORTH CENTRAL NEBRASKA

CITY           SKY/WX    TMP DP  RH WIND       PRES   REMARKS
VALENTINE      CLOUDY    61  47  59 E12       29.73R
AINSWORTH      CLOUDY    59  49  68 E13       29.74S
BROKEN BOW     CLOUDY    57  49  74 E14       29.72R
ORD            CLOUDY    53  46  77 NE13      29.72F
$$

NEZ041-046>049-061>064-073>077-083>087-252100-
SOUTH CENTRAL NEBRASKA

CITY           SKY/WX    TMP DP  RH WIND       PRES   REMARKS
GRAND ISLAND   CLOUDY    49  47  93 NE14      29.73S FOG
AURORA         CLOUDY    48  48 100 NE12      29.73R FOG
HASTINGS       CLOUDY    50  47  89 NE14      29.72R FOG
KEARNEY *      CLOUDY    54  48  82 NE17      29.71S
YORK           CLOUDY    46  46 100 N13       29.72R FOG
$$

NEZ011>018-030>034-042>045-252100-
NORTHEAST NEBRASKA

CITY           SKY/WX    TMP DP  RH WIND       PRES   REMARKS
NORFOLK        CLOUDY    56  47  71 E14       29.73S
BLAIR          CLOUDY    50  45  84 N13       29.70R
COLUMBUS *     CLOUDY    52  43  71 NE17      29.73R
TEKAMAH        CLOUDY    53  47  79 NE16      29.73R
$$

NEZ050>053-065>068-078-088>093-252100-
SOUTHEAST NEBRASKA

CITY           SKY/WX    TMP DP  RH WIND       PRES   REMARKS
LINCOLN        CLOUDY    51  47  86 NE18      29.70R
OMAHA EPPLEY   CLOUDY    52  46  80 N12       29.70S
FALLS CITY     CLOUDY    52  48  86 N13       29.64R
PLATTSMOUTH    CLOUDY    49  46  89 N12G17    29.68R
$$

NEZ044-045-051>053-067-252100-
OMAHA AREA

CITY           SKY/WX    TMP DP  RH WIND       PRES   REMARKS
OMAHA EPPLEY   CLOUDY    52  46  80 N12       29.70S
BLAIR          CLOUDY    50  45  84 N13       29.70R
OFFUTT AFB     CLOUDY    51  47  85 NE12      29.69R
PLATTSMOUTH    CLOUDY    49  46  89 N12G17    29.68R
$$



USA.gov is the U.S. government's official web portal to all federal, state and local government web resources and services.